AMX55KB MMMX-MMMD

Flight info

Callsign AMX55KB
Flight time 1h 18m
Altitude 37000
Route NOXOS3A NOXOS UT155 KIROG DCT VODAG DCT DYSON DYSON1A
Aircraft B38M/M-SDE1FGHILORVWXY/HB1

Departure

Time 2026-05-05 17:10
Airport Mexico City Benito Juárez International Airport (MMMX)

Arrival

Time 2026-05-05 18:28
Airport Manuel Crescencio Rejón International Airport (MMMD)
Time Latitude Longitude Altitude Speed Heading
2026-05-05 16:43 19.44230 -99.06972 7305 ft 0 kts 328°
2026-05-05 16:55 19.44188 -99.07051 7305 ft 0 kts 329°
2026-05-05 16:57 19.44174 -99.07043 7305 ft 4 kts 329°
2026-05-05 16:57 19.44151 -99.07028 7305 ft 4 kts 329°
2026-05-05 16:57 19.44132 -99.07014 7305 ft 4 kts 303°
2026-05-05 16:57 19.44130 -99.06992 7305 ft 4 kts 245°
2026-05-05 16:58 19.44138 -99.06976 7305 ft 1 kts 239°
2026-05-05 16:58 19.44139 -99.06974 7305 ft 0 kts 239°
2026-05-05 17:04 19.44138 -99.06977 7305 ft 2 kts 239°
2026-05-05 17:04 19.44119 -99.07010 7305 ft 9 kts 239°
2026-05-05 17:04 19.44076 -99.07088 7305 ft 16 kts 239°
2026-05-05 17:04 19.44008 -99.07209 7305 ft 22 kts 239°
2026-05-05 17:05 19.43918 -99.07371 7305 ft 29 kts 239°
2026-05-05 17:05 19.43807 -99.07565 7305 ft 32 kts 239°
2026-05-05 17:05 19.43713 -99.07604 7305 ft 10 kts 204°
2026-05-05 17:05 19.43673 -99.07654 7305 ft 9 kts 239°
2026-05-05 17:06 19.43636 -99.07722 7305 ft 14 kts 239°
2026-05-05 17:06 19.43572 -99.07835 7305 ft 22 kts 239°
2026-05-05 17:06 19.43481 -99.07997 7305 ft 29 kts 239°
2026-05-05 17:06 19.43370 -99.08195 7305 ft 32 kts 239°
2026-05-05 17:07 19.43257 -99.08397 7305 ft 31 kts 239°
2026-05-05 17:07 19.43149 -99.08589 7305 ft 22 kts 239°
2026-05-05 17:07 19.43081 -99.08610 7305 ft 9 kts 157°
2026-05-05 17:07 19.43041 -99.08563 7304 ft 9 kts 92°
2026-05-05 17:08 19.43063 -99.08506 7304 ft 8 kts 61°
2026-05-05 17:08 19.43093 -99.08454 7303 ft 9 kts 59°
2026-05-05 17:08 19.43174 -99.08308 7304 ft 47 kts 59°
2026-05-05 17:08 19.43426 -99.07860 7308 ft 93 kts 59°
2026-05-05 17:09 19.43831 -99.07140 7305 ft 133 kts 59°
2026-05-05 17:09 19.44363 -99.06196 7304 ft 165 kts 59°
2026-05-05 17:09 19.44958 -99.05091 7511 ft 172 kts 63°
2026-05-05 17:09 19.45474 -99.03934 7754 ft 182 kts 63°
2026-05-05 17:10 19.46077 -99.02679 7951 ft 198 kts 60°
2026-05-05 17:10 19.46828 -99.01436 8630 ft 202 kts 55°
2026-05-05 17:10 19.47607 -99.00184 9238 ft 205 kts 56°
2026-05-05 17:10 19.48378 -98.98896 9556 ft 208 kts 57°
2026-05-05 17:11 19.49140 -98.97590 9689 ft 209 kts 58°
2026-05-05 17:11 19.49896 -98.96281 9996 ft 208 kts 57°
2026-05-05 17:11 19.50642 -98.94974 10468 ft 207 kts 58°
2026-05-05 17:11 19.51388 -98.93660 10861 ft 209 kts 58°
2026-05-05 17:12 19.52132 -98.92340 11289 ft 208 kts 59°
2026-05-05 17:12 19.52872 -98.91023 11714 ft 209 kts 60°
2026-05-05 17:12 19.53448 -98.89608 12115 ft 209 kts 75°
2026-05-05 17:12 19.53839 -98.88125 12532 ft 209 kts 75°
2026-05-05 17:13 19.54229 -98.86646 12963 ft 209 kts 75°
2026-05-05 17:13 19.54618 -98.85168 13315 ft 211 kts 75°
2026-05-05 17:13 19.55019 -98.83641 13686 ft 213 kts 75°
2026-05-05 17:13 19.55412 -98.82146 14071 ft 213 kts 75°
2026-05-05 17:14 19.55811 -98.80634 14437 ft 214 kts 75°
2026-05-05 17:14 19.56212 -98.79111 14815 ft 216 kts 76°
2026-05-05 17:14 19.56614 -98.77578 15207 ft 217 kts 76°
2026-05-05 17:14 19.57021 -98.76030 15621 ft 218 kts 76°
2026-05-05 17:15 19.57428 -98.74483 16057 ft 218 kts 76°
2026-05-05 17:15 19.57810 -98.72928 16496 ft 218 kts 81°
2026-05-05 17:15 19.58078 -98.71340 16932 ft 219 kts 81°
2026-05-05 17:15 19.58347 -98.69756 17396 ft 219 kts 81°
2026-05-05 17:16 19.58623 -98.68160 17827 ft 222 kts 81°
2026-05-05 17:16 19.58911 -98.66506 17971 ft 238 kts 81°
2026-05-05 17:16 19.59229 -98.64702 18051 ft 258 kts 81°
2026-05-05 17:16 19.59571 -98.62766 18203 ft 277 kts 81°
2026-05-05 17:17 19.59938 -98.60694 18355 ft 292 kts 81°
2026-05-05 17:17 19.60323 -98.58517 18506 ft 309 kts 80°
2026-05-05 17:17 19.60725 -98.56244 18588 ft 327 kts 80°
2026-05-05 17:17 19.61157 -98.53801 18634 ft 346 kts 80°
2026-05-05 17:18 19.61556 -98.51222 18656 ft 363 kts 88°
2026-05-05 17:18 19.61513 -98.48493 18690 ft 378 kts 92°
2026-05-05 17:18 19.61446 -98.45664 18697 ft 393 kts 92°
2026-05-05 17:18 19.61375 -98.42718 18721 ft 406 kts 92°
2026-05-05 17:19 19.61297 -98.39688 18735 ft 417 kts 92°
2026-05-05 17:19 19.61215 -98.36583 18947 ft 421 kts 92°
2026-05-05 17:19 19.61132 -98.33469 19255 ft 423 kts 91°
2026-05-05 17:19 19.61049 -98.30342 19566 ft 424 kts 91°
2026-05-05 17:20 19.60964 -98.27207 19834 ft 427 kts 91°
2026-05-05 17:20 19.60879 -98.24060 20114 ft 428 kts 91°
2026-05-05 17:20 19.60793 -98.20895 20425 ft 429 kts 91°
2026-05-05 17:20 19.60706 -98.17725 20644 ft 432 kts 91°
2026-05-05 17:21 19.60618 -98.14532 20907 ft 434 kts 91°
2026-05-05 17:21 19.60529 -98.11333 21131 ft 436 kts 91°
2026-05-05 17:21 19.60439 -98.08112 21378 ft 438 kts 91°
2026-05-05 17:22 19.60548 -98.01641 21821 ft 442 kts 78°
2026-05-05 17:22 19.61523 -97.98557 22080 ft 443 kts 66°
2026-05-05 17:22 19.62798 -97.95603 22252 ft 446 kts 65°
2026-05-05 17:22 19.64140 -97.92630 22473 ft 448 kts 64°
2026-05-05 17:23 19.65510 -97.89657 22736 ft 449 kts 64°
2026-05-05 17:23 19.66901 -97.86676 22922 ft 451 kts 64°
2026-05-05 17:23 19.68300 -97.83695 23149 ft 453 kts 63°
2026-05-05 17:23 19.69711 -97.80696 23363 ft 454 kts 63°
2026-05-05 17:24 19.71126 -97.77688 23532 ft 456 kts 63°
2026-05-05 17:24 19.72539 -97.74683 23752 ft 456 kts 63°
2026-05-05 17:24 19.73954 -97.71671 23876 ft 459 kts 63°
2026-05-05 17:24 19.75374 -97.68647 24080 ft 460 kts 63°
2026-05-05 17:25 19.76806 -97.65597 24256 ft 460 kts 63°
2026-05-05 17:25 19.77751 -97.63582 24345 ft 462 kts 63°
2026-05-05 17:25 19.79674 -97.59483 24569 ft 464 kts 63°
2026-05-05 17:25 19.81096 -97.56446 24713 ft 466 kts 64°
2026-05-05 17:26 19.82531 -97.53385 24900 ft 467 kts 64°
2026-05-05 17:26 19.83981 -97.50288 25065 ft 468 kts 64°
2026-05-05 17:26 19.85436 -97.47179 25211 ft 470 kts 64°
2026-05-05 17:26 19.86893 -97.44063 25398 ft 471 kts 64°
2026-05-05 17:27 19.88355 -97.40935 25545 ft 473 kts 64°
2026-05-05 17:27 19.89669 -97.37732 25682 ft 474 kts 73°
2026-05-05 17:27 19.90311 -97.34301 25891 ft 474 kts 80°
2026-05-05 17:27 19.90847 -97.30841 25963 ft 478 kts 81°
2026-05-05 17:28 19.91361 -97.27355 26182 ft 478 kts 81°
2026-05-05 17:28 19.91859 -97.23857 26290 ft 480 kts 81°
2026-05-05 17:28 19.92347 -97.20352 26470 ft 480 kts 81°
2026-05-05 17:28 19.92828 -97.16871 26583 ft 483 kts 81°
2026-05-05 17:29 19.93315 -97.13341 26754 ft 484 kts 81°
2026-05-05 17:29 19.93803 -97.09797 26882 ft 486 kts 81°
2026-05-05 17:29 19.94291 -97.06245 27050 ft 486 kts 81°
2026-05-05 17:29 19.94780 -97.02683 27186 ft 488 kts 81°
2026-05-05 17:30 19.95271 -96.99107 27342 ft 489 kts 81°
2026-05-05 17:30 19.95761 -96.95526 27504 ft 490 kts 82°
2026-05-05 17:30 19.96250 -96.91947 27709 ft 490 kts 82°
2026-05-05 17:30 19.96739 -96.88364 27907 ft 490 kts 82°
2026-05-05 17:31 19.97226 -96.84786 28123 ft 489 kts 81°
2026-05-05 17:31 19.97714 -96.81205 28358 ft 489 kts 81°
2026-05-05 17:31 19.98199 -96.77631 28601 ft 488 kts 81°
2026-05-05 17:31 19.98683 -96.74063 28849 ft 487 kts 81°
2026-05-05 17:32 19.99004 -96.71696 29014 ft 487 kts 81°
2026-05-05 17:32 19.99637 -96.67012 29336 ft 487 kts 81°
2026-05-05 17:32 20.00117 -96.63453 29599 ft 487 kts 81°
2026-05-05 17:32 20.00598 -96.59891 29853 ft 487 kts 81°
2026-05-05 17:33 20.00920 -96.57499 30029 ft 486 kts 81°
2026-05-05 17:33 20.01392 -96.53988 30249 ft 486 kts 81°
2026-05-05 17:33 20.01868 -96.50436 30479 ft 486 kts 81°
2026-05-05 17:33 20.02345 -96.46879 30692 ft 486 kts 82°
2026-05-05 17:34 20.02819 -96.43341 30921 ft 486 kts 82°
2026-05-05 17:34 20.03294 -96.39787 31155 ft 486 kts 81°
2026-05-05 17:34 20.03769 -96.36225 31401 ft 486 kts 82°
2026-05-05 17:34 20.04242 -96.32674 31649 ft 485 kts 82°
2026-05-05 17:35 20.04712 -96.29136 31894 ft 485 kts 82°
2026-05-05 17:35 20.05183 -96.25590 32144 ft 484 kts 82°
2026-05-05 17:35 20.05653 -96.22043 32405 ft 484 kts 82°
2026-05-05 17:35 20.06123 -96.18500 32664 ft 483 kts 82°
2026-05-05 17:36 20.06588 -96.14976 32864 ft 484 kts 83°
2026-05-05 17:36 20.07525 -96.07879 32890 ft 482 kts 82°
2026-05-05 17:37 20.08451 -96.00831 32893 ft 482 kts 82°
2026-05-05 17:37 20.09372 -95.93800 32895 ft 482 kts 82°
2026-05-05 17:38 20.10295 -95.86736 32898 ft 482 kts 82°
2026-05-05 17:38 20.11206 -95.79742 32902 ft 481 kts 82°
2026-05-05 17:39 20.12122 -95.72684 32902 ft 481 kts 83°
2026-05-05 17:39 20.13033 -95.65636 32903 ft 482 kts 82°
2026-05-05 17:40 20.13945 -95.58569 32900 ft 482 kts 82°
2026-05-05 17:40 20.14851 -95.51525 32899 ft 482 kts 82°
2026-05-05 17:41 20.15753 -95.44483 32899 ft 482 kts 82°
2026-05-05 17:41 20.16656 -95.37413 32899 ft 482 kts 82°
2026-05-05 17:42 20.17558 -95.30336 32900 ft 483 kts 82°
2026-05-05 17:42 20.18458 -95.23239 32902 ft 484 kts 82°
2026-05-05 17:43 20.19358 -95.16125 32905 ft 484 kts 82°
2026-05-05 17:43 20.20252 -95.09032 32904 ft 484 kts 82°
2026-05-05 17:44 20.21137 -95.01991 32908 ft 484 kts 82°
2026-05-05 17:44 20.22024 -94.94908 32911 ft 484 kts 82°
2026-05-05 17:45 20.22910 -94.87806 32910 ft 484 kts 82°
2026-05-05 17:45 20.23795 -94.80694 32908 ft 484 kts 82°
2026-05-05 17:46 20.24677 -94.73588 32909 ft 485 kts 82°
2026-05-05 17:46 20.25551 -94.66517 32912 ft 484 kts 82°
2026-05-05 17:47 20.26430 -94.59392 32911 ft 484 kts 82°
2026-05-05 17:47 20.27299 -94.52322 32915 ft 484 kts 82°
2026-05-05 17:48 20.28169 -94.45210 32911 ft 484 kts 82°
2026-05-05 17:48 20.28925 -94.38088 32915 ft 484 kts 83°
2026-05-05 17:49 20.29678 -94.31012 32918 ft 484 kts 82°
2026-05-05 17:49 20.30435 -94.23892 32917 ft 484 kts 83°
2026-05-05 17:50 20.31188 -94.16770 32918 ft 484 kts 83°
2026-05-05 17:50 20.31933 -94.09690 32919 ft 485 kts 83°
2026-05-05 17:51 20.32682 -94.02553 32919 ft 485 kts 83°
2026-05-05 17:51 20.33429 -93.95411 32922 ft 485 kts 83°
2026-05-05 17:52 20.34172 -93.88271 32921 ft 485 kts 83°
2026-05-05 17:52 20.34914 -93.81119 32922 ft 485 kts 83°
2026-05-05 17:53 20.35651 -93.73981 32922 ft 485 kts 83°
2026-05-05 17:53 20.36387 -93.66828 32924 ft 485 kts 83°
2026-05-05 17:54 20.37119 -93.59678 32920 ft 486 kts 83°
2026-05-05 17:54 20.37850 -93.52518 32918 ft 485 kts 83°
2026-05-05 17:55 20.38577 -93.45363 32923 ft 485 kts 83°
2026-05-05 17:55 20.39302 -93.38202 32921 ft 485 kts 83°
2026-05-05 17:56 20.40018 -93.31098 32926 ft 485 kts 83°
2026-05-05 17:56 20.40736 -93.23941 32925 ft 485 kts 83°
2026-05-05 17:57 20.41452 -93.16781 32924 ft 485 kts 83°
2026-05-05 17:57 20.42164 -93.09620 32924 ft 485 kts 83°
2026-05-05 17:58 20.42873 -93.02463 32924 ft 485 kts 83°
2026-05-05 17:58 20.43580 -92.95302 32923 ft 485 kts 83°
2026-05-05 17:59 20.44284 -92.88140 32924 ft 485 kts 83°
2026-05-05 17:59 20.44984 -92.80981 32938 ft 485 kts 83°
2026-05-05 18:00 20.45682 -92.73822 32931 ft 485 kts 83°
2026-05-05 18:00 20.46372 -92.66713 32933 ft 485 kts 83°
2026-05-05 18:01 20.47062 -92.59561 32936 ft 484 kts 83°
2026-05-05 18:01 20.47750 -92.52415 32934 ft 484 kts 83°
2026-05-05 18:02 20.48435 -92.45268 32934 ft 484 kts 83°
2026-05-05 18:02 20.49116 -92.38125 32933 ft 484 kts 83°
2026-05-05 18:03 20.49794 -92.30977 32935 ft 484 kts 83°
2026-05-05 18:03 20.50469 -92.23840 32925 ft 483 kts 83°
2026-05-05 18:04 20.51141 -92.16704 32935 ft 483 kts 83°
2026-05-05 18:04 20.51803 -92.09627 32939 ft 483 kts 83°
2026-05-05 18:05 20.52469 -92.02491 32931 ft 483 kts 83°
2026-05-05 18:05 20.53131 -91.95362 32931 ft 483 kts 83°
2026-05-05 18:06 20.53790 -91.88234 32936 ft 482 kts 83°
2026-05-05 18:06 20.54444 -91.81118 32938 ft 482 kts 83°
2026-05-05 18:07 20.55097 -91.74001 32937 ft 482 kts 83°
2026-05-05 18:07 20.55744 -91.66893 32943 ft 482 kts 83°
2026-05-05 18:08 20.56391 -91.59778 32940 ft 482 kts 83°
2026-05-05 18:08 20.57033 -91.52660 32937 ft 482 kts 83°
2026-05-05 18:09 20.57669 -91.45594 32934 ft 480 kts 83°
2026-05-05 18:09 20.58305 -91.38492 32944 ft 481 kts 83°
2026-05-05 18:10 20.58932 -91.31456 32455 ft 477 kts 83°
2026-05-05 18:10 20.59247 -91.27907 31240 ft 486 kts 84°
2026-05-05 18:10 20.59567 -91.24297 30483 ft 486 kts 83°
2026-05-05 18:10 20.59885 -91.20703 29591 ft 487 kts 84°
2026-05-05 18:11 20.60204 -91.17087 28377 ft 493 kts 83°
2026-05-05 18:11 20.60525 -91.13450 27515 ft 491 kts 84°
2026-05-05 18:11 20.60844 -91.09814 26554 ft 492 kts 83°
2026-05-05 18:11 20.61163 -91.06189 25858 ft 488 kts 84°
2026-05-05 18:12 20.61476 -91.02599 25150 ft 485 kts 84°
2026-05-05 18:12 20.61789 -90.99020 24427 ft 482 kts 84°
2026-05-05 18:12 20.62098 -90.95466 23723 ft 480 kts 84°
2026-05-05 18:12 20.62402 -90.91970 22922 ft 478 kts 84°
2026-05-05 18:13 20.62707 -90.88449 22249 ft 472 kts 83°
2026-05-05 18:13 20.63364 -90.85053 21632 ft 464 kts 70°
2026-05-05 18:13 20.64588 -90.81888 20851 ft 461 kts 66°
2026-05-05 18:13 20.65823 -90.78744 20222 ft 456 kts 66°
2026-05-05 18:14 20.67050 -90.75655 19686 ft 449 kts 66°
2026-05-05 18:14 20.68267 -90.72604 19157 ft 443 kts 66°
2026-05-05 18:14 20.69465 -90.69598 18599 ft 438 kts 66°
2026-05-05 18:14 20.70653 -90.66621 18020 ft 434 kts 66°
2026-05-05 18:15 20.71830 -90.63667 17398 ft 429 kts 66°
2026-05-05 18:15 20.72994 -90.60746 16792 ft 425 kts 66°
2026-05-05 18:15 20.74142 -90.57862 16268 ft 420 kts 65°
2026-05-05 18:15 20.75277 -90.55009 15776 ft 414 kts 65°
2026-05-05 18:16 20.76394 -90.52200 15308 ft 409 kts 66°
2026-05-05 18:16 20.77500 -90.49418 14855 ft 403 kts 65°
2026-05-05 18:16 20.78588 -90.46678 14421 ft 398 kts 65°
2026-05-05 18:16 20.79666 -90.43965 14007 ft 393 kts 65°
2026-05-05 18:17 20.80728 -90.41288 13599 ft 389 kts 65°
2026-05-05 18:17 20.81773 -90.38653 13227 ft 382 kts 65°
2026-05-05 18:17 20.82799 -90.36064 12962 ft 373 kts 65°
2026-05-05 18:17 20.83798 -90.33542 12749 ft 364 kts 65°
2026-05-05 18:18 20.84773 -90.31081 12549 ft 355 kts 65°
2026-05-05 18:18 20.85721 -90.28684 12367 ft 345 kts 65°
2026-05-05 18:18 20.86644 -90.26352 12201 ft 336 kts 65°
2026-05-05 18:18 20.87540 -90.24084 12056 ft 326 kts 65°
2026-05-05 18:19 20.88410 -90.21880 11907 ft 317 kts 65°
2026-05-05 18:19 20.89255 -90.19743 11773 ft 307 kts 65°
2026-05-05 18:19 20.90063 -90.17696 11648 ft 298 kts 65°
2026-05-05 18:19 20.90864 -90.15665 11478 ft 286 kts 65°
2026-05-05 18:20 20.91630 -90.13725 10916 ft 289 kts 66°
2026-05-05 18:20 20.92158 -90.12385 10578 ft 289 kts 66°
2026-05-05 18:20 20.93183 -90.09780 10049 ft 285 kts 66°
2026-05-05 18:20 20.93952 -90.07828 9602 ft 285 kts 66°
2026-05-05 18:21 20.94471 -90.06509 9287 ft 283 kts 66°
2026-05-05 18:21 20.95479 -90.03948 8730 ft 282 kts 67°
2026-05-05 18:21 20.95992 -90.02643 8434 ft 281 kts 68°
2026-05-05 18:21 20.96990 -90.00107 7876 ft 278 kts 68°
2026-05-05 18:22 20.97490 -89.98841 7599 ft 278 kts 68°
2026-05-05 18:22 20.98240 -89.96939 7148 ft 277 kts 68°
2026-05-05 18:22 20.98986 -89.95045 6765 ft 275 kts 68°
2026-05-05 18:22 20.99725 -89.93163 6399 ft 274 kts 69°
2026-05-05 18:23 21.00032 -89.91196 6012 ft 265 kts 97°
2026-05-05 18:23 20.99664 -89.89316 5756 ft 252 kts 105°
2026-05-05 18:23 20.99245 -89.87533 5522 ft 241 kts 105°
2026-05-05 18:23 20.98825 -89.85832 5304 ft 231 kts 106°
2026-05-05 18:24 20.98413 -89.84211 5114 ft 220 kts 106°
2026-05-05 18:24 20.98025 -89.82685 4823 ft 206 kts 106°
2026-05-05 18:24 20.97656 -89.81241 4311 ft 195 kts 107°
2026-05-05 18:24 20.97310 -89.79881 3809 ft 185 kts 106°
2026-05-05 18:25 20.96970 -89.78560 3246 ft 184 kts 107°
2026-05-05 18:25 20.96748 -89.77691 2933 ft 181 kts 105°
2026-05-05 18:25 20.96320 -89.76007 2430 ft 168 kts 107°
2026-05-05 18:25 20.96018 -89.74830 2112 ft 160 kts 106°
2026-05-05 18:26 20.95727 -89.73685 1895 ft 160 kts 108°
2026-05-05 18:26 20.95431 -89.72534 1856 ft 155 kts 106°
2026-05-05 18:26 20.95170 -89.71454 1465 ft 151 kts 107°
2026-05-05 18:26 20.94906 -89.70359 1076 ft 146 kts 106°
2026-05-05 18:27 20.94654 -89.69336 785 ft 141 kts 105°
2026-05-05 18:27 20.94374 -89.68330 566 ft 145 kts 106°
2026-05-05 18:27 20.94111 -89.67290 422 ft 148 kts 109°
2026-05-05 18:27 20.93822 -89.66208 207 ft 154 kts 109°
2026-05-05 18:28 20.93293 -89.64179 42 ft 103 kts 104°
2026-05-05 18:28 20.93164 -89.63665 41 ft 44 kts 105°
2026-05-05 18:28 20.93115 -89.63476 41 ft 20 kts 105°
2026-05-05 18:29 20.93060 -89.63273 42 ft 36 kts 109°